EW7698 Weather Reports


time (UTC)temp
C
wind
direction
speed
KPH
gust
KPH
rain 1hr
cm
rain 24hr
cm
rain mn
cm
humidity
%
barometer
mb
20260510000322 22 53 0.0 1.6 0.00 0.20 0.08 83 1012.0
20260510000048 22 53 0.0 1.6 0.00 0.20 0.08 83 1012.0
20260510000005 22 47 0.0 3.2 0.00 0.20 0.08 82 1012.3
20260509235810 22 36 0.0 3.2 0.00 0.20 0.08 82 1011.9
20260509235313 22 36 0.0 3.2 0.00 0.20 0.08 82 1011.8
20260509234816 22 37 0.0 1.6 0.00 0.20 0.08 82 1011.9
20260509234539 22 37 0.0 1.6 0.00 0.20 0.08 82 1012.0
20260509234508 22 31 0.0 1.6 0.00 0.20 0.08 82 1012.3
20260509234320 22 41 0.0 1.6 0.00 0.20 0.08 82 1012.0
20260509233823 22 53 0.0 3.2 0.00 0.20 0.08 82 1012.0
20260509233326 22 47 0.0 0.0 0.00 0.20 0.08 82 1011.8
20260509233016 22 49 0.0 3.2 0.00 0.20 0.08 82 1011.8
20260509233004 22 44 0.0 3.2 0.00 0.20 0.08 81 1012.2
20260509232810 22 49 0.0 3.2 0.00 0.20 0.08 82 1011.8
20260509232332 22 49 0.0 3.2 0.00 0.20 0.08 82 1011.8
20260509231811 22 20 0.0 1.6 0.00 0.20 0.08 82 1011.7
20260509231530 22 287 0.0 1.6 0.00 0.20 0.08 82 1011.6
20260509231510 22 291 0.0 1.6 0.00 0.20 0.08 81 1011.9
20260509231311 22 284 0.0 1.6 0.00 0.20 0.08 82 1011.6
20260509230815 22 306 0.0 0.0 0.00 0.20 0.08 82 1011.6
20260509230319 22 284 0.0 1.6 0.00 0.20 0.08 82 1011.4
20260509230013 22 5 0.0 1.6 0.00 0.20 0.08 82 1011.4
20260509230009 22 1 0.0 1.6 0.00 0.20 0.08 81 1011.8
20260509225839 22 330 0.0 0.0 0.00 0.20 0.08 82 1011.4
20260509225320 22 330 0.0 0.0 0.00 0.20 0.08 82 1011.5
20260509224808 22 22 0.0 1.6 0.00 0.20 0.08 82 1011.5
20260509224545 22 21 0.0 1.6 0.00 0.20 0.08 82 1011.5
20260509224511 22 14 0.0 1.6 0.00 0.20 0.08 81 1011.9
20260509224312 22 21 0.0 1.6 0.00 0.20 0.08 82 1011.5
20260509223816 22 286 0.0 0.0 0.00 0.20 0.08 82 1011.5
20260509223332 22 286 0.0 0.0 0.00 0.20 0.08 81 1011.7
20260509223059 22 287 0.0 0.0 0.00 0.20 0.08 81 1011.5
20260509223012 22 291 0.0 0.0 0.00 0.20 0.08 81 1011.9
20260509222815 22 287 0.0 0.0 0.00 0.20 0.08 81 1011.6
20260509222336 22 287 0.0 0.0 0.00 0.20 0.08 81 1011.5
20260509221839 22 287 0.0 0.0 0.00 0.20 0.08 81 1011.6
20260509221555 22 288 0.0 4.8 0.00 0.20 0.08 81 1011.6
20260509221508 22 292 0.0 4.8 0.00 0.20 0.08 81 1012.0
20260509221321 22 284 0.0 4.8 0.00 0.20 0.08 81 1011.7
20260509220844 22 266 0.0 0.0 0.00 0.20 0.08 81 1011.6
20260509220327 23 360 0.0 0.0 0.00 0.20 0.08 81 1011.7
20260509220018 22 359 0.0 0.0 0.00 0.20 0.08 81 1012.0
20260509220016 22 355 0.0 0.0 0.00 0.20 0.08 81 1011.7
20260509215831 23 355 0.0 0.0 0.00 0.20 0.08 81 1011.6
20260509215334 23 342 0.0 1.6 0.00 0.20 0.08 81 1011.6
20260509214838 23 17 0.0 1.6 0.00 0.20 0.08 82 1011.7
20260509214541 23 17 0.0 1.6 0.00 0.20 0.08 82 1011.8
20260509214508 23 163 0.0 0.0 0.00 0.20 0.08 81 1012.2
20260509214321 23 180 0.0 0.0 0.00 0.20 0.08 82 1011.8
20260509213823 23 180 0.0 0.0 0.00 0.20 0.08 82 1011.8
20260509213308 23 180 0.0 0.0 0.00 0.20 0.08 81 1012.0
20260509213029 23 180 0.0 0.0 0.00 0.20 0.08 81 1012.0
20260509213023 23 179 0.0 0.0 0.00 0.20 0.08 81 1012.4
20260509212812 23 180 0.0 0.0 0.03 0.20 0.08 81 1012.1
20260509212313 23 180 0.0 0.0 0.03 0.20 0.08 81 1012.2
20260509211817 23 180 0.0 0.0 0.03 0.20 0.08 81 1012.2
20260509211512 23 179 0.0 0.0 0.03 0.20 0.08 81 1012.4
20260509211509 23 180 0.0 0.0 0.03 0.20 0.08 81 1012.1
20260509211320 23 180 0.0 0.0 0.03 0.20 0.08 81 1012.1
20260509210824 23 180 0.0 0.0 0.03 0.20 0.08 81 1011.7
20260509210308 23 180 0.0 0.0 0.03 0.20 0.08 82 1011.8
20260509210100 23 180 0.0 0.0 0.03 0.20 0.08 81 1011.8
20260509210014 23 180 0.0 0.0 0.03 0.20 0.08 81 1012.2
20260509205812 23 180 0.0 0.0 0.03 0.20 0.08 81 1011.9
20260509205334 23 180 0.0 0.0 0.03 0.20 0.08 81 1011.9
20260509204815 23 206 0.0 0.0 0.03 0.20 0.08 81 1011.9
20260509204514 23 206 0.0 0.0 0.03 0.20 0.08 81 1012.0
20260509204320 23 206 0.0 0.0 0.03 0.20 0.08 81 1012.0
20260509203824 23 144 0.0 0.0 0.03 0.20 0.08 81 1011.9
20260509203308 23 217 0.0 0.0 0.03 0.20 0.08 80 1011.9
20260509203117 23 217 0.0 0.0 0.03 0.20 0.08 80 1011.9
20260509203016 23 219 0.0 0.0 0.03 0.20 0.08 80 1012.3
20260509203002 23 217 0.0 0.0 0.03 0.20 0.08 80 1011.9
20260509202812 23 217 0.0 0.0 0.00 0.18 0.05 80 1012.0
20260509202314 24 189 0.0 1.6 0.00 0.18 0.05 80 1011.9
20260509201838 24 189 0.0 1.6 0.00 0.18 0.05 80 1011.8
20260509201520 23 189 0.0 1.6 0.00 0.18 0.05 80 1011.8
20260509201512 23 189 0.0 1.6 0.00 0.18 0.05 79 1012.2
20260509201321 24 189 0.0 1.6 0.00 0.18 0.05 80 1011.8
20260509200826 24 92 0.0 1.6 0.00 0.18 0.05 80 1011.8
20260509200325 24 63 0.0 1.6 0.00 0.18 0.05 80 1011.8
20260509200013 24 276 0.0 0.0 0.00 0.18 0.05 80 1012.2
20260509200006 24 272 0.0 0.0 0.00 0.18 0.05 80 1011.9
20260509195810 25 272 0.0 0.0 0.00 0.18 0.05 80 1011.9
20260509195312 25 272 0.0 1.6 0.00 0.18 0.05 80 1012.1
20260509194815 25 272 0.0 1.6 0.00 0.18 0.05 80 1012.0
20260509194550 24 246 0.0 0.0 0.00 0.18 0.05 80 1012.0
20260509194513 24 248 0.0 0.0 0.00 0.18 0.05 80 1012.4
20260509194318 25 246 0.0 0.0 0.00 0.18 0.05 80 1012.0
20260509193822 25 246 0.0 0.0 0.00 0.18 0.05 80 1011.8
20260509193325 25 246 0.0 0.0 0.00 0.18 0.05 79 1011.6
20260509193039 24 246 0.0 0.0 0.00 0.18 0.05 79 1011.7
20260509193025 25 248 0.0 3.2 0.00 0.18 0.05 79 1012.1
20260509192810 25 246 0.0 3.2 0.00 0.18 0.05 79 1011.8
20260509192312 25 246 0.0 3.2 0.00 0.18 0.05 79 1011.8
20260509191833 25 310 0.0 0.0 0.00 0.18 0.05 78 1011.8
20260509191518 25 315 0.0 3.2 0.00 0.18 0.05 78 1012.1
20260509191510 25 310 0.0 3.2 0.00 0.18 0.05 78 1011.7
20260509191312 25 310 0.0 3.2 0.00 0.18 0.05 78 1011.8
20260509190816 25 280 0.0 6.4 0.00 0.18 0.05 77 1011.7
20260509190339 25 313 0.0 6.4 0.00 0.18 0.05 77 1011.8
20260509190044 25 350 0.0 4.8 0.00 0.18 0.05 77 1011.8
20260509190019 25 356 0.0 4.8 0.00 0.18 0.05 77 1012.1
20260509185823 25 124 0.0 4.8 0.00 0.18 0.05 77 1011.9
20260509185325 25 347 0.0 11.3 0.00 0.18 0.05 77 1011.9
20260509184808 25 67 1.6 11.3 0.00 0.18 0.05 77 1011.8
20260509184556 25 57 0.0 11.3 0.00 0.18 0.05 78 1011.8
20260509184531 25 61 0.0 9.7 0.00 0.18 0.05 77 1012.2
20260509184312 25 277 0.0 3.2 0.00 0.18 0.05 78 1011.8
20260509183814 25 265 0.0 4.8 0.00 0.18 0.05 79 1011.9
20260509183337 25 103 0.0 1.6 0.00 0.18 0.05 80 1011.9
20260509182817 25 46 0.0 1.6 0.00 0.18 0.05 79 1012.0
20260509182320 25 219 0.0 3.2 0.00 0.18 0.05 79 1012.1
20260509181824 25 64 0.0 4.8 0.00 0.18 0.05 79 1012.1
20260509181609 25 76 0.0 6.4 0.00 0.18 0.05 79 1012.1
20260509181518 25 72 0.0 6.4 0.00 0.18 0.05 78 1012.4
20260509181307 25 87 1.6 6.4 0.00 0.18 0.05 79 1012.1
20260509180811 25 241 0.0 6.4 0.00 0.18 0.05 79 1012.2
20260509180315 25 67 0.0 4.8 0.00 0.18 0.05 79 1012.2
20260509180020 25 297 0.0 6.4 0.00 0.18 0.05 78 1012.5
20260509180010 25 292 0.0 4.8 0.00 0.18 0.05 79 1012.2
20260509175820 25 293 0.0 6.4 0.00 0.18 0.05 79 1012.2
20260509175323 25 304 0.0 6.4 0.00 0.18 0.05 78 1012.2
20260509174826 25 234 1.6 11.3 0.00 0.18 0.05 78 1012.2
20260509174529 25 126 0.0 11.3 0.00 0.18 0.05 78 1012.2
20260509174522 25 124 0.0 12.9 0.00 0.18 0.05 77 1012.6
20260509174309 25 105 4.8 12.9 0.00 0.18 0.05 78 1012.2
20260509173812 25 284 1.6 12.9 0.00 0.18 0.05 78 1012.3
20260509173316 25 67 1.6 9.7 0.00 0.18 0.05 78 1012.2
20260509173030 25 237 1.6 9.7 0.00 0.18 0.05 78 1012.2
20260509173019 25 239 0.0 9.7 0.00 0.18 0.05 77 1012.6
20260509172821 25 236 1.6 9.7 0.00 0.18 0.05 78 1012.2
20260509172324 25 277 1.6 11.3 0.00 0.18 0.05 78 1012.3
20260509171809 25 215 1.6 11.3 0.00 0.18 0.05 78 1012.4
20260509171543 25 300 0.0 11.3 0.00 0.18 0.05 78 1012.4
20260509171517 25 237 0.0 11.3 0.00 0.18 0.05 77 1012.8
20260509171313 25 219 3.2 9.7 0.00 0.18 0.05 77 1012.4
20260509170817 26 234 1.6 9.7 0.00 0.18 0.05 77 1012.4
20260509170323 26 226 1.6 9.7 0.00 0.18 0.05 76 1012.4
20260509170050 26 313 1.6 11.3 0.00 0.18 0.05 76 1012.4
20260509170009 26 231 1.6 11.3 0.00 0.18 0.05 75 1012.8
20260509165827 26 225 1.6 11.3 0.00 0.18 0.05 76 1012.4
20260509165310 26 225 1.6 9.7 0.00 0.18 0.05 76 1012.5
20260509164813 26 249 0.0 9.7 0.00 0.18 0.05 75 1012.6
20260509164550 26 261 0.0 9.7 0.00 0.18 0.05 75 1012.5
20260509164504 26 18 0.0 9.7 0.00 0.18 0.05 75 1012.9
20260509164316 27 266 0.0 9.7 0.00 0.18 0.05 75 1012.5
20260509163819 27 264 1.6 9.7 0.00 0.18 0.05 75 1012.6
20260509163322 27 230 0.0 9.7 0.00 0.18 0.05 76 1012.6
20260509163048 26 241 1.6 12.9 0.00 0.18 0.05 76 1012.7
20260509163004 26 306 1.6 12.9 0.00 0.18 0.05 76 1013.1
20260509162847 26 231 1.6 12.9 0.00 0.18 0.05 77 1012.8
20260509162308 26 30 0.0 6.4 0.00 0.18 0.05 77 1012.8
20260509161811 26 253 1.6 14.5 0.00 0.18 0.05 77 1012.8
20260509161520 26 220 0.0 14.5 0.00 0.18 0.05 77 1012.7
20260509161511 26 221 0.0 14.5 0.00 0.18 0.05 77 1013.1
20260509161335 26 89 3.2 14.5 0.00 0.18 0.05 77 1012.8
20260509160818 26 248 1.6 11.3 0.00 0.18 0.05 79 1012.8
20260509160317 25 178 1.6 12.9 0.00 0.18 0.05 78 1012.9
20260509160042 25 247 1.6 12.9 0.00 0.18 0.05 78 1012.8
20260509160013 25 250 3.2 12.9 0.00 0.18 0.05 78 1013.1
20260509155816 25 224 1.6 12.9 0.00 0.18 0.05 79 1012.8
20260509155319 25 266 1.6 8.0 0.00 0.18 0.05 79 1013.0
20260509154822 25 227 0.0 9.7 0.00 0.18 0.05 79 1013.0
20260509154536 25 288 0.0 9.7 0.00 0.18 0.05 79 1013.0
20260509154503 25 359 0.0 9.7 0.00 0.18 0.05 79 1013.4
20260509154342 25 67 1.6 9.7 0.00 0.18 0.05 80 1013.1
20260509153808 25 181 0.0 8.0 0.00 0.18 0.05 80 1013.1
20260509153313 25 242 1.6 6.4 0.00 0.18 0.05 81 1013.2
20260509153012 24 234 0.0 6.4 0.00 0.18 0.05 81 1013.0
20260509153005 24 236 0.0 6.4 0.00 0.18 0.05 80 1013.4
20260509152819 24 269 0.0 6.4 0.00 0.18 0.05 81 1013.0
20260509152325 24 102 1.6 8.0 0.00 0.18 0.05 80 1013.2
20260509151833 24 265 1.6 8.0 0.00 0.18 0.05 80 1013.1
20260509151538 23 36 1.6 8.0 0.00 0.18 0.05 79 1013.1
20260509151506 23 201 1.6 12.9 0.00 0.18 0.05 79 1013.5
20260509151317 24 254 1.6 12.9 0.00 0.18 0.05 79 1013.1
20260509150840 24 248 1.6 12.9 0.00 0.18 0.05 79 1013.2
20260509150310 24 223 0.0 8.0 0.00 0.18 0.05 79 1013.4
20260509150052 23 88 0.0 8.0 0.00 0.18 0.05 79 1013.4
20260509150012 23 245 0.0 12.9 0.00 0.18 0.05 79 1013.8
20260509145818 24 259 0.0 12.9 0.00 0.18 0.05 80 1013.5
20260509145324 24 213 1.6 12.9 0.00 0.18 0.05 79 1013.5
20260509144811 24 55 1.6 8.0 0.00 0.18 0.05 80 1013.4
20260509144540 23 5 0.0 6.4 0.00 0.18 0.05 80 1013.4
20260509144519 23 11 0.0 6.4 0.00 0.18 0.05 80 1013.8
20260509144341 24 84 0.0 6.4 0.00 0.18 0.05 81 1013.5
20260509143828 24 267 1.6 6.4 0.00 0.18 0.05 81 1013.6
20260509143334 24 245 0.0 3.2 0.00 0.18 0.05 83 1013.5
20260509143039 23 244 0.0 4.8 0.00 0.18 0.05 83 1013.5
20260509143007 23 247 0.0 4.8 0.00 0.18 0.05 82 1013.9
20260509142836 23 244 0.0 4.8 0.00 0.18 0.05 83 1013.5
20260509142321 23 244 0.0 4.8 0.00 0.18 0.05 83 1013.5
20260509141813 23 274 0.0 6.4 0.00 0.18 0.05 84 1013.4
20260509141558 23 47 0.0 6.4 0.00 0.18 0.05 85 1013.3
20260509141506 23 35 0.0 6.4 0.00 0.18 0.05 84 1013.6
20260509141321 23 41 0.0 6.4 0.00 0.18 0.05 85 1013.3
20260509140808 23 233 0.0 1.6 0.00 0.18 0.05 86 1013.2
20260509140315 23 233 0.0 6.4 0.00 0.18 0.05 86 1013.1
20260509140046 23 233 0.0 6.4 0.00 0.18 0.05 87 1013.0
20260509140012 23 235 0.0 6.4 0.00 0.18 0.05 86 1013.4
20260509135822 23 233 0.0 6.4 0.00 0.18 0.05 87 1013.1
20260509135328 23 232 0.0 3.2 0.00 0.18 0.05 88 1013.0
20260509134812 23 220 0.0 1.6 0.00 0.18 0.05 88 1013.1
20260509134523 22 230 0.0 0.0 0.00 0.18 0.05 88 1013.0
20260509134514 23 232 0.0 1.6 0.00 0.18 0.05 88 1013.4
20260509134318 23 302 0.0 0.0 0.00 0.18 0.05 88 1013.0
20260509133825 23 302 0.0 0.0 0.00 0.18 0.05 89 1013.1
20260509133311 22 302 0.0 0.0 0.00 0.18 0.05 88 1013.1
20260509133107 22 302 0.0 0.0 0.00 0.18 0.05 89 1013.1
20260509133018 22 309 0.0 0.0 0.00 0.18 0.05 88 1013.4
20260509132818 22 304 0.0 0.0 0.00 0.18 0.05 88 1013.1
20260509132323 22 304 0.0 0.0 0.00 0.18 0.05 88 1013.1
20260509131810 22 304 0.0 0.0 0.00 0.18 0.05 88 1013.1
20260509131544 22 304 0.0 0.0 0.00 0.18 0.05 88 1013.1
20260509131503 22 309 0.0 0.0 0.00 0.18 0.05 88 1013.5
20260509131316 22 304 0.0 0.0 0.00 0.18 0.05 89 1013.2
20260509130825 22 304 0.0 0.0 0.00 0.18 0.05 89 1013.3
20260509130312 22 304 0.0 0.0 0.00 0.18 0.05 89 1013.4
20260509130028 22 304 0.0 0.0 0.00 0.18 0.05 89 1013.5
20260509130011 22 309 0.0 0.0 0.00 0.18 0.05 88 1013.8
20260509125818 22 304 0.0 0.0 0.00 0.18 0.05 89 1013.5
20260509125322 22 304 0.0 0.0 0.00 0.18 0.05 89 1013.4
20260509124828 22 304 0.0 1.6 0.00 0.18 0.05 89 1013.2
20260509124515 22 304 0.0 1.6 0.00 0.18 0.05 89 1013.2
20260509124510 22 309 0.0 1.6 0.00 0.18 0.05 88 1013.5
20260509124335 22 304 0.0 1.6 0.00 0.18 0.05 89 1013.3
20260509123822 22 248 0.0 0.0 0.00 0.18 0.05 89 1013.2
20260509123329 22 248 0.0 0.0 0.00 0.18 0.05 89 1013.1
20260509123034 22 248 0.0 4.8 0.00 0.18 0.05 89 1013.1
20260509123017 22 251 0.0 4.8 0.00 0.18 0.05 88 1013.5
20260509122837 22 248 0.0 4.8 0.00 0.18 0.05 89 1013.1
20260509122320 22 255 0.0 4.8 0.00 0.18 0.05 89 1012.9
20260509121807 22 248 0.0 1.6 0.00 0.18 0.05 89 1012.7
20260509121556 21 247 0.0 3.2 0.00 0.18 0.05 89 1012.6
20260509121524 21 250 0.0 3.2 0.00 0.18 0.05 88 1013.0
20260509121313 22 247 0.0 3.2 0.00 0.18 0.05 89 1012.6
20260509120845 21 247 0.0 3.2 0.00 0.18 0.05 89 1012.7
20260509120313 21 196 0.0 1.6 0.00 0.18 0.05 89 1012.8
20260509120024 21 195 0.0 3.2 0.00 0.18 0.05 89 1012.8
20260509120005 21 196 0.0 3.2 0.00 0.18 0.05 88 1013.2
20260509115818 21 232 0.0 3.2 0.00 0.18 0.05 89 1012.9
20260509115323 21 226 0.0 3.2 0.00 0.18 0.05 89 1012.7
20260509114808 21 257 0.0 4.8 0.00 0.18 0.05 89 1012.9
20260509114508 21 257 0.0 4.8 0.00 0.18 0.05 89 1012.8
20260509114315 21 257 0.0 4.8 0.00 0.18 0.05 89 1012.8
20260509113822 21 254 0.0 1.6 0.00 0.18 0.05 89 1012.6
20260509113330 21 256 0.0 0.0 0.00 0.18 0.05 88 1012.6
20260509113056 21 215 0.0 0.0 0.00 0.18 0.05 88 1012.6
20260509113015 21 217 0.0 0.0 0.00 0.18 0.05 88 1013.0
20260509112838 21 215 0.0 0.0 0.00 0.18 0.05 88 1012.7
20260509112323 21 215 0.0 0.0 0.00 0.18 0.05 88 1012.5
20260509111811 21 215 0.0 0.0 0.00 0.18 0.05 88 1012.4
20260509111520 20 217 0.0 0.0 0.00 0.18 0.05 88 1012.8
20260509111516 20 215 0.0 0.0 0.00 0.18 0.05 88 1012.5
20260509111317 21 215 0.0 0.0 0.00 0.18 0.05 88 1012.5
20260509110825 21 215 0.0 0.0 0.00 0.18 0.05 88 1012.5
20260509110333 21 215 0.0 0.0 0.00 0.18 0.05 88 1012.5
20260509110045 20 215 0.0 0.0 0.00 0.18 0.05 88 1012.4
20260509110023 20 217 0.0 0.0 0.00 0.18 0.05 88 1012.7
20260509105817 21 360 0.0 0.0 0.00 0.18 0.05 88 1012.4
20260509105323 21 360 0.0 0.0 0.00 0.18 0.05 88 1012.3
20260509104810 21 265 0.0 0.0 0.00 0.18 0.05 88 1012.3
20260509104510 20 265 0.0 0.0 0.00 0.18 0.05 89 1012.2
20260509104314 21 265 0.0 0.0 0.00 0.18 0.05 88 1012.2
20260509103821 20 260 0.0 0.0 0.00 0.18 0.05 88 1012.0
20260509103328 20 259 0.0 0.0 0.00 0.18 0.05 88 1011.9
20260509103109 20 259 0.0 0.0 0.00 0.18 0.05 88 1011.8
20260509103012 20 262 0.0 0.0 0.00 0.18 0.05 88 1012.2
20260509102835 20 259 0.0 0.0 0.00 0.18 0.05 88 1012.0
20260509102320 20 259 0.0 0.0 0.00 0.18 0.05 88 1012.0
20260509101806 20 259 0.0 0.0 0.00 0.18 0.05 88 1011.9
20260509101528 20 259 0.0 0.0 0.00 0.18 0.05 88 1011.8
20260509101523 20 262 0.0 0.0 0.00 0.18 0.05 88 1012.1
20260509101314 20 259 0.0 0.0 0.00 0.18 0.05 88 1011.8
20260509100822 20 260 0.0 0.0 0.00 0.18 0.05 88 1011.8
20260509100309 20 260 0.0 0.0 0.00 0.18 0.05 88 1011.7
20260509100026 19 263 0.0 0.0 0.00 0.18 0.05 87 1011.9
20260509100008 19 260 0.0 0.0 0.00 0.18 0.05 88 1011.7
20260509095817 19 260 0.0 0.0 0.00 0.18 0.05 87 1011.7
20260509095324 19 260 0.0 0.0 0.00 0.18 0.05 87 1011.9
20260509094811 20 260 0.0 0.0 0.00 0.18 0.05 87 1011.8
20260509094552 19 260 0.0 0.0 0.00 0.18 0.05 87 1011.7
20260509094525 19 263 0.0 0.0 0.00 0.18 0.05 87 1012.1
20260509094319 20 260 0.0 0.0 0.00 0.18 0.05 87 1011.8
20260509093851 20 260 0.0 0.0 0.00 0.18 0.05 87 1011.8
20260509093338 20 260 0.0 0.0 0.00 0.18 0.05 87 1011.8
20260509093059 19 260 0.0 0.0 0.00 0.18 0.05 87 1011.6
20260509093010 19 263 0.0 0.0 0.00 0.18 0.05 87 1012.0
20260509092825 20 260 0.0 0.0 0.00 0.18 0.05 87 1011.7
20260509092312 20 260 0.0 0.0 0.00 0.18 0.05 87 1011.9
20260509091844 20 260 0.0 0.0 0.00 0.18 0.05 87 1012.0
20260509091524 19 260 0.0 0.0 0.00 0.18 0.05 87 1012.0
20260509091513 19 263 0.0 0.0 0.00 0.18 0.05 87 1012.3
20260509091331 20 260 0.0 0.0 0.00 0.18 0.05 87 1012.0
20260509090818 20 260 0.0 0.0 0.00 0.18 0.05 87 1011.7
20260509090306 20 260 0.0 0.0 0.00 0.18 0.05 87 1011.8
20260509090055 19 260 0.0 0.0 0.00 0.18 0.05 87 1012.0
20260509090032 19 263 0.0 0.0 0.00 0.18 0.05 87 1012.4
20260509085814 20 260 0.0 0.0 0.00 0.18 0.05 87 1012.0
20260509085320 20 260 0.0 0.0 0.00 0.18 0.05 87 1012.4
20260509084819 20 260 0.0 0.0 0.00 0.18 0.05 87 1012.8
20260509084526 19 260 0.0 0.0 0.00 0.18 0.05 87 1012.5
20260509084306 20 260 0.0 0.0 0.00 0.18 0.05 87 1012.2
20260509083813 20 260 0.0 0.0 0.00 0.18 0.05 87 1012.1
20260509083321 20 260 0.0 0.0 0.00 0.18 0.05 87 1012.0
20260509083035 19 263 0.0 0.0 0.00 0.18 0.05 87 1012.2
20260509083009 19 260 0.0 0.0 0.00 0.18 0.05 87 1011.9
20260509082813 20 260 0.0 0.0 0.00 0.18 0.05 87 1012.0
20260509082319 20 260 0.0 0.0 0.00 0.18 0.05 87 1011.8
20260509081807 20 260 0.0 0.0 0.00 0.18 0.05 87 1011.6
20260509081556 19 260 0.0 0.0 0.00 0.18 0.05 87 1011.7
20260509081511 19 263 0.0 0.0 0.00 0.18 0.05 87 1012.1
20260509081312 20 260 0.0 0.0 0.00 0.18 0.05 87 1012.0
20260509080844 20 260 0.0 0.0 0.00 0.18 0.05 87 1012.4
20260509080311 20 260 0.0 0.0 0.00 0.18 0.05 87 1012.5
20260509080021 20 260 0.0 0.0 0.00 0.18 0.05 87 1012.6
20260509080014 20 263 0.0 0.0 0.00 0.18 0.05 87 1012.9
20260509075820 20 260 0.0 0.0 0.00 0.18 0.05 87 1012.7
20260509075318 20 260 0.0 0.0 0.00 0.18 0.05 87 1012.8
20260509074806 20 260 0.0 0.0 0.00 0.18 0.05 87 1012.5
20260509074521 20 263 0.0 0.0 0.00 0.18 0.05 87 1012.8
20260509074504 20 260 0.0 0.0 0.00 0.18 0.05 87 1012.5
20260509074314 20 260 0.0 0.0 0.00 0.18 0.05 87 1012.5
20260509073822 20 260 0.0 0.0 0.00 0.18 0.05 87 1012.3
20260509073309 20 260 0.0 0.0 0.00 0.18 0.05 87 1012.3
20260509073052 19 260 0.0 0.0 0.00 0.18 0.05 87 1012.4
20260509073030 19 263 0.0 0.0 0.00 0.18 0.05 86 1012.8
20260509072817 20 260 0.0 0.0 0.00 0.18 0.05 87 1012.6
20260509072324 19 260 0.0 1.6 0.00 0.18 0.05 87 1012.5
20260509071812 19 260 0.0 1.6 0.00 0.18 0.05 87 1012.2
20260509071547 19 202 0.0 1.6 0.00 0.18 0.05 86 1012.0
20260509071534 19 310 0.0 0.0 0.00 0.18 0.05 86 1012.3
20260509071319 19 305 0.0 0.0 0.00 0.18 0.05 86 1012.0
20260509070825 19 307 0.0 0.0 0.00 0.18 0.05 86 1012.3
20260509070311 19 307 0.0 0.0 0.00 0.18 0.05 86 1012.3
20260509070038 18 307 0.0 0.0 0.00 0.18 0.05 86 1012.4
20260509070012 18 312 0.0 0.0 0.00 0.18 0.05 86 1012.8
20260509065844 19 307 0.0 0.0 0.00 0.18 0.05 86 1012.5
20260509065309 19 307 0.0 0.0 0.00 0.18 0.05 86 1012.5
20260509064816 19 307 0.0 0.0 0.00 0.18 0.05 86 1012.7
20260509064547 19 307 0.0 0.0 0.00 0.18 0.05 86 1012.8
20260509064502 19 312 0.0 0.0 0.00 0.18 0.05 86 1013.2
20260509064321 19 307 0.0 0.0 0.00 0.18 0.05 86 1012.9
20260509063828 19 307 0.0 0.0 0.00 0.18 0.05 86 1013.0
20260509063315 19 307 0.0 0.0 0.00 0.18 0.05 86 1013.2
20260509063016 19 307 0.0 0.0 0.00 0.18 0.05 86 1013.2
20260509063004 19 312 0.0 0.0 0.00 0.18 0.05 85 1013.5
20260509062824 19 307 0.0 0.0 0.00 0.18 0.05 86 1013.2
20260509062331 19 307 0.0 0.0 0.00 0.18 0.05 86 1013.2
20260509061844 19 307 0.0 0.0 0.00 0.18 0.05 86 1013.2
20260509061511 19 307 0.0 0.0 0.00 0.18 0.05 86 1013.0
20260509061507 19 312 0.0 0.0 0.00 0.18 0.05 85 1013.2
20260509061310 19 307 0.0 0.0 0.00 0.18 0.05 86 1012.9
20260509060818 19 307 0.0 0.0 0.00 0.18 0.05 86 1013.2
20260509060326 19 307 0.0 0.0 0.00 0.18 0.05 86 1013.4
20260509060112 19 307 0.0 0.0 0.00 0.18 0.05 86 1013.2
20260509060010 19 312 0.0 0.0 0.00 0.18 0.05 85 1013.5
20260509055815 19 307 0.0 0.0 0.00 0.18 0.05 86 1013.2
20260509055322 19 307 0.0 0.0 0.00 0.18 0.05 85 1013.0
20260509054830 19 307 0.0 0.0 0.00 0.18 0.05 85 1013.0
20260509054541 19 307 0.0 0.0 0.00 0.18 0.05 85 1012.9
20260509054503 19 312 0.0 0.0 0.00 0.18 0.05 85 1013.2
20260509054336 19 307 0.0 0.0 0.00 0.18 0.05 85 1012.9
20260509053846 19 307 0.0 0.0 0.00 0.18 0.05 85 1013.0
20260509053311 19 306 0.0 0.0 0.00 0.18 0.05 85 1013.1
20260509053047 19 306 0.0 0.0 0.00 0.18 0.05 85 1013.2
20260509053004 19 311 0.0 0.0 0.00 0.18 0.05 85 1013.6
20260509052818 19 306 0.0 0.0 0.00 0.18 0.05 85 1013.4
20260509052322 20 306 0.0 0.0 0.00 0.18 0.05 85 1013.7
20260509051809 20 306 0.0 0.0 0.03 0.18 0.05 85 1014.2
20260509051533 19 306 0.0 0.0 0.03 0.18 0.05 85 1014.1
20260509051505 19 311 0.0 0.0 0.03 0.18 0.05 84 1014.3
20260509051341 20 306 0.0 0.0 0.05 0.18 0.05 85 1014.0
20260509050827 20 306 0.0 0.0 0.05 0.18 0.05 85 1013.9
20260509050332 20 306 0.0 0.0 0.05 0.18 0.05 85 1014.1
20260509050056 19 306 0.0 0.0 0.05 0.18 0.05 85 1014.1
20260509050017 19 311 0.0 0.0 0.05 0.18 0.05 84 1014.4
20260509045839 20 306 0.0 0.0 0.05 0.18 0.05 85 1014.1
20260509045323 20 306 0.0 0.0 0.08 0.18 0.05 84 1014.0
20260509044810 20 306 0.0 0.0 0.08 0.18 0.05 84 1013.9
20260509044518 20 306 0.0 0.0 0.10 0.18 0.05 84 1013.9
20260509044512 20 311 0.0 0.0 0.10 0.18 0.05 84 1014.4
20260509044316 20 306 0.0 0.0 0.10 0.18 0.05 84 1014.2
20260509043824 20 306 0.0 0.0 0.10 0.18 0.05 84 1014.3
20260509043310 20 306 0.0 0.0 0.13 0.18 0.05 84 1014.1
20260509043005 20 306 0.0 0.0 0.13 0.18 0.05 84 1014.1
20260509043003 20 311 0.0 0.0 0.13 0.18 0.05 84 1014.3
20260509042817 20 306 0.0 0.0 0.13 0.18 0.05 84 1014.1
20260509042324 20 306 0.0 0.0 0.13 0.18 0.05 84 1014.1
20260509041811 20 306 0.0 3.2 0.10 0.15 0.03 84 1014.2
20260509041549 20 306 0.0 6.4 0.13 0.15 0.03 83 1014.1
20260509041505 20 312 0.0 6.4 0.13 0.15 0.03 83 1014.4
20260509041318 20 248 0.0 6.4 0.10 0.13 0.00 83 1014.1
20260509040825 20 234 1.6 9.7 0.10 0.13 0.00 83 1013.7
20260509040310 20 34 0.0 9.7 0.13 0.13 0.00 83 1014.2
20260509040035 20 261 0.0 4.8 0.13 0.13 0.00 83 1014.3
20260509040004 20 264 0.0 4.8 0.13 0.13 0.00 83 1014.7
20260509035834 20 217 0.0 4.8 0.13 0.13 0.00 83 1014.5
20260509035315 20 169 0.0 3.2 0.10 0.10 0.10 83 1014.7
20260509034818 20 244 0.0 3.2 0.10 0.10 0.10 83 1014.8
20260509034550 20 250 0.0 4.8 0.08 0.08 0.08 83 1015.0
20260509034511 20 253 0.0 4.8 0.08 0.08 0.08 83 1015.4
20260509034322 20 239 0.0 4.8 0.08 0.08 0.08 83 1015.1
20260509033825 20 277 0.0 4.8 0.08 0.08 0.08 83 1015.2
20260509033348 20 253 0.0 4.8 0.05 0.05 0.05 83 1015.1
20260509033014 20 308 0.0 4.8 0.05 0.05 0.05 82 1015.4
20260509033010 20 244 0.0 4.8 0.05 0.05 0.05 83 1015.1
20260509032811 21 276 0.0 4.8 0.05 0.05 0.05 83 1015.0
20260509032313 21 275 0.0 8.0 0.05 0.05 0.05 83 1014.9
20260509031817 21 284 1.6 8.0 0.05 0.05 0.05 83 1015.0
20260509031553 20 200 0.0 1.6 0.03 0.03 0.03 82 1015.1
20260509031507 20 1 0.0 1.6 0.03 0.03 0.03 82 1015.6
20260509031321 21 22 0.0 1.6 0.03 0.03 0.03 82 1015.3
20260509030824 21 255 0.0 0.0 0.03 0.03 0.03 82 1015.6
20260509030347 21 246 0.0 0.0 0.00 0.00 0.00 82 1015.8
20260509030014 20 246 0.0 8.0 0.00 0.00 0.00 82 1016.0
20260509025830 21 243 0.0 8.0 0.00 0.00 0.00 82 1015.9
20260509025313 21 243 0.0 8.0 0.00 0.00 0.00 82 1015.8
20260509024815 21 255 0.0 0.0 0.00 0.00 0.00 82 1015.9
20260509024601 20 255 0.0 0.0 0.00 0.00 0.00 81 1015.8
20260509024319 21 255 0.0 0.0 0.00 0.00 0.00 81 1015.9
20260509023823 21 255 0.0 0.0 0.00 0.00 0.00 81 1015.9
20260509023327 21 255 0.0 0.0 0.00 0.00 0.00 81 1016.1
20260509023047 20 254 0.0 0.0 0.00 0.00 0.00 81 1016.0
20260509022831 21 254 0.0 0.0 0.00 0.00 0.00 81 1016.0
20260509022314 21 254 0.0 0.0 0.00 0.00 0.00 81 1016.0
20260509021820 21 254 0.0 0.0 0.00 0.00 0.00 81 1016.1
20260509021535 20 257 0.0 0.0 0.00 0.00 0.00 80 1016.2
20260509021530 20 254 0.0 0.0 0.00 0.00 0.00 81 1015.9
20260509021322 21 254 0.0 0.0 0.00 0.00 0.00 81 1015.8
20260509020817 21 254 0.0 0.0 0.00 0.00 0.00 81 1015.8
20260509020341 21 254 0.0 0.0 0.00 0.00 0.00 81 1015.7
20260509020057 20 254 0.0 0.0 0.00 0.00 0.00 81 1015.7
20260509020004 20 257 0.0 0.0 0.00 0.00 0.00 80 1016.0
20260509015825 21 254 0.0 0.0 0.00 0.00 0.00 80 1015.7
20260509015327 21 254 0.0 0.0 0.00 0.00 0.00 81 1015.7
20260509014831 21 254 0.0 0.0 0.00 0.00 0.00 80 1015.5
20260509014547 20 238 0.0 0.0 0.00 0.00 0.00 81 1015.3
20260509014505 20 240 0.0 0.0 0.00 0.00 0.00 80 1015.6
20260509014315 21 238 0.0 0.0 0.00 0.00 0.00 81 1015.2
20260509013838 21 238 0.0 0.0 0.00 0.00 0.00 80 1014.9
20260509013321 21 238 0.0 3.2 0.00 0.00 0.00 81 1014.8
20260509013100 20 238 0.0 3.2 0.00 0.00 0.00 80 1014.7
20260509013008 20 240 0.0 3.2 0.00 0.00 0.00 80 1015.1
20260509012826 21 238 0.0 3.2 0.00 0.00 0.00 81 1014.6
20260509012329 21 241 0.0 3.2 0.00 0.00 0.00 80 1014.6
20260509011812 21 211 0.0 1.6 0.00 0.00 0.00 80 1014.7
20260509011543 20 211 0.0 1.6 0.00 0.00 0.00 80 1014.7
20260509011515 20 212 0.0 1.6 0.00 0.00 0.00 80 1015.1
20260509011315 21 211 0.0 1.6 0.00 0.00 0.00 80 1014.7
20260509010819 21 214 0.0 0.0 0.00 0.00 0.00 80 1014.8
20260509010322 21 227 0.0 3.2 0.00 0.00 0.00 80 1014.9
20260509010029 21 212 0.0 3.2 0.00 0.00 0.00 80 1014.9
20260509010018 20 213 0.0 3.2 0.00 0.00 0.00 80 1015.2
20260509005854 21 263 0.0 3.2 0.00 0.00 0.00 80 1014.9
20260509005316 21 263 0.0 3.2 0.00 0.00 0.00 80 1014.7
20260509004819 21 200 0.0 3.2 0.00 0.00 0.00 80 1014.5
20260509004600 20 200 0.0 3.2 0.00 0.00 0.00 80 1014.5
20260509004505 20 201 0.0 3.2 0.00 0.00 0.00 79 1014.9
20260509004323 21 219 0.0 3.2 0.00 0.00 0.00 80 1014.7
20260509003827 21 191 0.0 3.2 0.00 0.00 0.00 80 1014.8
20260509003331 21 293 0.0 3.2 0.00 0.00 0.00 80 1014.7
20260509003041 20 204 0.0 1.6 0.00 0.00 0.00 80 1014.6
20260509003010 20 187 0.0 1.6 0.00 0.00 0.00 79 1015.0
20260509002836 21 122 0.0 3.2 0.00 0.00 0.00 80 1014.6
20260509002336 21 198 0.0 4.8 0.00 0.00 0.00 79 1014.5
20260509001855 21 152 1.6 6.4 0.00 0.00 0.00 79 1014.5
20260509001547 21 229 0.0 6.4 0.00 0.00 0.00 79 1014.3
20260509001513 20 231 0.0 6.4 0.00 0.00 0.00 79 1014.5
20260509001338 21 194 0.0 6.4 0.00 0.00 0.00 79 1014.2
20260509000842 21 237 0.0 4.8 0.00 0.00 0.00 79 1014.3
20260509000348 21 184 0.0 3.2 0.00 0.00 0.00 79 1014.3